| time (UTC) | temp F | wind direction | speed MPH | gust MPH | rain 1hr in | rain 24hr in | rain mn in | humidity % | barometer mb |
| 20260503012804 | 63 | 322 | 3.0 | 6.0 | 0.00 | 0.00 | 0.00 | 37 | 1014.6 |
| 20260503012305 | 63 | 308 | 3.0 | 8.0 | 0.00 | 0.00 | 0.00 | 36 | 1014.5 |
| 20260503011305 | 63 | 320 | 1.0 | 7.0 | 0.00 | 0.00 | 0.00 | 37 | 1014.6 |
| 20260503010804 | 63 | 291 | 4.0 | 8.0 | 0.00 | 0.00 | 0.00 | 37 | 1014.6 |
| 20260503005305 | 64 | 286 | 5.0 | 10.0 | 0.00 | 0.00 | 0.00 | 35 | 1014.5 |
| 20260503004803 | 64 | 287 | 5.0 | 8.0 | 0.00 | 0.00 | 0.00 | 36 | 1014.6 |
| 20260503003803 | 64 | 288 | 5.0 | 9.0 | 0.00 | 0.00 | 0.00 | 35 | 1014.9 |
| 20260503003304 | 64 | 283 | 4.0 | 10.0 | 0.00 | 0.00 | 0.00 | 35 | 1014.9 |
| 20260503002804 | 64 | 277 | 3.0 | 7.0 | 0.00 | 0.00 | 0.00 | 36 | 1014.7 |
| 20260503002305 | 64 | 291 | 3.0 | 8.0 | 0.00 | 0.00 | 0.00 | 35 | 1015.1 |
| 20260503001804 | 65 | 314 | 3.0 | 9.0 | 0.00 | 0.00 | 0.00 | 37 | 1015.1 |
| 20260503001304 | 64 | 282 | 5.0 | 12.0 | 0.00 | 0.00 | 0.00 | 35 | 1015.0 |
| 20260503000804 | 64 | 291 | 5.0 | 9.0 | 0.00 | 0.00 | 0.00 | 35 | 1014.9 |
| 20260503000304 | 65 | 322 | 3.0 | 7.0 | 0.00 | 0.00 | 0.00 | 36 | 1014.9 |
| 20260502235804 | 65 | 271 | 3.0 | 9.0 | 0.00 | 0.00 | 0.00 | 36 | 1015.2 |
| 20260502235305 | 65 | 305 | 3.0 | 9.0 | 0.00 | 0.00 | 0.00 | 36 | 1015.1 |
| 20260502234804 | 65 | 257 | 5.0 | 10.0 | 0.00 | 0.00 | 0.00 | 36 | 1015.2 |
| 20260502233804 | 65 | 273 | 5.0 | 10.0 | 0.00 | 0.00 | 0.00 | 35 | 1015.6 |
| 20260502233304 | 65 | 290 | 3.0 | 8.0 | 0.00 | 0.00 | 0.00 | 36 | 1015.4 |
| 20260502232804 | 65 | 324 | 3.0 | 9.0 | 0.00 | 0.00 | 0.00 | 36 | 1015.5 |
| 20260502232305 | 65 | 288 | 3.0 | 8.0 | 0.00 | 0.00 | 0.00 | 36 | 1015.7 |
| 20260502231803 | 65 | 347 | 2.0 | 5.0 | 0.00 | 0.00 | 0.00 | 36 | 1015.8 |
| 20260502231305 | 65 | 278 | 2.0 | 7.0 | 0.00 | 0.00 | 0.00 | 36 | 1015.6 |
| 20260502230804 | 65 | 304 | 6.0 | 15.0 | 0.00 | 0.00 | 0.00 | 36 | 1015.8 |
| 20260502230304 | 65 | 279 | 5.0 | 10.0 | 0.00 | 0.00 | 0.00 | 36 | 1015.9 |
| 20260502225804 | 64 | 305 | 2.0 | 8.0 | 0.00 | 0.00 | 0.00 | 38 | 1015.8 |
| 20260502225304 | 64 | 301 | 3.0 | 7.0 | 0.00 | 0.00 | 0.00 | 38 | 1015.9 |
| 20260502224804 | 64 | 97 | 1.0 | 6.0 | 0.00 | 0.00 | 0.00 | 36 | 1016.0 |
| 20260502224304 | 64 | 311 | 4.0 | 12.0 | 0.00 | 0.00 | 0.00 | 37 | 1016.0 |
| 20260502223804 | 64 | 321 | 2.0 | 6.0 | 0.00 | 0.00 | 0.00 | 38 | 1016.3 |
| 20260502223304 | 64 | 288 | 2.0 | 5.0 | 0.00 | 0.00 | 0.00 | 37 | 1016.4 |
| 20260502222804 | 64 | 15 | 2.0 | 7.0 | 0.00 | 0.00 | 0.00 | 37 | 1016.4 |
| 20260502221304 | 65 | 309 | 4.0 | 9.0 | 0.00 | 0.00 | 0.00 | 37 | 1016.5 |
| 20260502220804 | 64 | 293 | 4.0 | 9.0 | 0.00 | 0.00 | 0.00 | 38 | 1016.7 |
| 20260502220304 | 64 | 326 | 1.0 | 5.0 | 0.00 | 0.00 | 0.00 | 38 | 1016.8 |
| 20260502215305 | 64 | 295 | 6.0 | 9.0 | 0.00 | 0.00 | 0.00 | 38 | 1016.8 |
| 20260502214804 | 64 | 311 | 3.0 | 8.0 | 0.00 | 0.00 | 0.00 | 39 | 1016.9 |
| 20260502214305 | 64 | 287 | 3.0 | 8.0 | 0.00 | 0.00 | 0.00 | 37 | 1016.9 |
| 20260502213804 | 64 | 298 | 3.0 | 13.0 | 0.00 | 0.00 | 0.00 | 39 | 1017.1 |
| 20260502213304 | 64 | 268 | 5.0 | 9.0 | 0.00 | 0.00 | 0.00 | 39 | 1017.2 |
| 20260502212804 | 64 | 289 | 4.0 | 10.0 | 0.00 | 0.00 | 0.00 | 36 | 1017.1 |
| 20260502212305 | 64 | 267 | 3.0 | 6.0 | 0.00 | 0.00 | 0.00 | 38 | 1017.1 |
| 20260502211804 | 64 | 297 | 2.0 | 6.0 | 0.00 | 0.00 | 0.00 | 37 | 1017.0 |
| 20260502210804 | 63 | 158 | 2.0 | 6.0 | 0.00 | 0.00 | 0.00 | 37 | 1017.3 |
| 20260502210304 | 63 | 296 | 4.0 | 8.0 | 0.00 | 0.00 | 0.00 | 38 | 1017.5 |
| 20260502205804 | 63 | 332 | 2.0 | 7.0 | 0.00 | 0.00 | 0.00 | 39 | 1017.3 |
| 20260502205305 | 63 | 268 | 4.0 | 10.0 | 0.00 | 0.00 | 0.00 | 38 | 1017.6 |
| 20260502204804 | 63 | 282 | 3.0 | 9.0 | 0.00 | 0.00 | 0.00 | 38 | 1017.9 |
| 20260502204304 | 63 | 270 | 3.0 | 9.0 | 0.00 | 0.00 | 0.00 | 38 | 1017.7 |
| 20260502203804 | 63 | 289 | 3.0 | 8.0 | 0.00 | 0.00 | 0.00 | 41 | 1018.1 |
| 20260502202803 | 63 | 248 | 3.0 | 10.0 | 0.00 | 0.00 | 0.00 | 40 | 1018.0 |
| 20260502202305 | 62 | 275 | 5.0 | 10.0 | 0.00 | 0.00 | 0.00 | 39 | 1018.3 |
| 20260502201804 | 62 | 137 | 1.0 | 7.0 | 0.00 | 0.00 | 0.00 | 38 | 1018.2 |
| 20260502201304 | 62 | 261 | 2.0 | 8.0 | 0.00 | 0.00 | 0.00 | 38 | 1018.3 |
| 20260502200804 | 62 | 279 | 4.0 | 8.0 | 0.00 | 0.00 | 0.00 | 38 | 1018.3 |
| 20260502200303 | 62 | 217 | 4.0 | 13.0 | 0.00 | 0.00 | 0.00 | 38 | 1018.4 |
| 20260502195804 | 62 | 293 | 3.0 | 7.0 | 0.00 | 0.00 | 0.00 | 40 | 1018.6 |
| 20260502195305 | 63 | 326 | 1.0 | 7.0 | 0.00 | 0.00 | 0.00 | 37 | 1018.7 |
| 20260502194804 | 63 | 279 | 3.0 | 8.0 | 0.00 | 0.00 | 0.00 | 38 | 1018.7 |
| 20260502194304 | 63 | 279 | 2.0 | 13.0 | 0.00 | 0.00 | 0.00 | 38 | 1018.7 |
| 20260502193804 | 63 | 279 | 4.0 | 13.0 | 0.00 | 0.00 | 0.00 | 38 | 1019.0 |
| 20260502193304 | 63 | 284 | 2.0 | 8.0 | 0.00 | 0.00 | 0.00 | 40 | 1018.8 |
| 20260502192804 | 62 | 266 | 4.0 | 8.0 | 0.00 | 0.00 | 0.00 | 40 | 1019.0 |
| 20260502192305 | 63 | 203 | 2.0 | 7.0 | 0.00 | 0.00 | 0.00 | 37 | 1019.0 |
| 20260502191804 | 63 | 294 | 3.0 | 7.0 | 0.00 | 0.00 | 0.00 | 43 | 1019.2 |
| 20260502191304 | 63 | 271 | 4.0 | 9.0 | 0.00 | 0.00 | 0.00 | 39 | 1019.2 |
| 20260502190804 | 63 | 283 | 6.0 | 12.0 | 0.00 | 0.00 | 0.00 | 40 | 1019.2 |
| 20260502190304 | 64 | 292 | 2.0 | 5.0 | 0.00 | 0.00 | 0.00 | 39 | 1019.3 |
| 20260502185804 | 64 | 275 | 3.0 | 8.0 | 0.00 | 0.00 | 0.00 | 38 | 1019.4 |
| 20260502184804 | 64 | 269 | 5.0 | 9.0 | 0.00 | 0.00 | 0.00 | 39 | 1019.4 |
| 20260502184304 | 64 | 303 | 2.0 | 9.0 | 0.00 | 0.00 | 0.00 | 46 | 1019.5 |
| 20260502183304 | 63 | 287 | 2.0 | 12.0 | 0.00 | 0.00 | 0.00 | 38 | 1019.6 |
| 20260502182804 | 63 | 294 | 5.0 | 12.0 | 0.00 | 0.00 | 0.00 | 43 | 1019.7 |
| 20260502182305 | 64 | 258 | 2.0 | 8.0 | 0.00 | 0.00 | 0.00 | 38 | 1020.0 |
| 20260502181804 | 64 | 276 | 5.0 | 12.0 | 0.00 | 0.00 | 0.00 | 41 | 1020.0 |
| 20260502181304 | 63 | 271 | 3.0 | 8.0 | 0.00 | 0.00 | 0.00 | 39 | 1020.0 |
| 20260502180804 | 63 | 289 | 4.0 | 8.0 | 0.00 | 0.00 | 0.00 | 40 | 1020.2 |
| 20260502180305 | 64 | 273 | 3.0 | 8.0 | 0.00 | 0.00 | 0.00 | 38 | 1020.2 |
| 20260502170304 | 61 | 303 | 2.0 | 3.0 | 0.00 | 0.00 | 0.00 | 44 | 1020.6 |
| 20260502164304 | 62 | 15 | 1.0 | 6.0 | 0.00 | 0.00 | 0.00 | 40 | 1020.6 |
| 20260502163804 | 62 | 276 | 2.0 | 6.0 | 0.00 | 0.00 | 0.00 | 42 | 1020.8 |
| 20260502163304 | 62 | 153 | 0.0 | 2.0 | 0.00 | 0.00 | 0.00 | 42 | 1020.9 |
| 20260502162804 | 61 | 273 | 2.0 | 3.0 | 0.00 | 0.00 | 0.00 | 42 | 1020.9 |
| 20260502162305 | 61 | 267 | 1.0 | 3.0 | 0.00 | 0.00 | 0.00 | 42 | 1020.7 |
| 20260502160804 | 58 | 265 | 2.0 | 5.0 | 0.00 | 0.00 | 0.00 | 47 | 1020.9 |
| 20260502160304 | 56 | 282 | 1.0 | 2.0 | 0.00 | 0.00 | 0.00 | 49 | 1021.1 |
| 20260502152305 | 54 | 186 | 1.0 | 2.0 | 0.00 | 0.00 | 0.00 | 52 | 1021.3 |
| 20260502151304 | 53 | 200 | 1.0 | 2.0 | 0.00 | 0.00 | 0.00 | 53 | 1021.1 |
| 20260502150804 | 52 | 139 | 1.0 | 1.0 | 0.00 | 0.00 | 0.00 | 54 | 1021.1 |
| 20260502150304 | 52 | 150 | 1.0 | 2.0 | 0.00 | 0.00 | 0.00 | 54 | 1021.2 |
| 20260502130304 | 47 | 29 | 0.0 | 0.0 | 0.00 | 0.00 | 0.00 | 65 | 1020.7 |
| 20260502123804 | 47 | 41 | 0.0 | 1.0 | 0.00 | 0.00 | 0.00 | 66 | 1020.8 |
| 20260502123304 | 47 | 41 | 0.0 | 1.0 | 0.00 | 0.00 | 0.00 | 65 | 1020.7 |
| 20260502122804 | 47 | 76 | 0.0 | 1.0 | 0.00 | 0.00 | 0.00 | 65 | 1020.7 |
| 20260502122306 | 47 | 96 | 0.0 | 2.0 | 0.00 | 0.00 | 0.00 | 65 | 1020.8 |
| 20260502121305 | 47 | 100 | 1.0 | 3.0 | 0.00 | 0.00 | 0.00 | 65 | 1020.7 |
| 20260502120803 | 47 | 100 | 1.0 | 3.0 | 0.00 | 0.00 | 0.00 | 65 | 1020.7 |
| 20260502120304 | 47 | 97 | 1.0 | 3.0 | 0.00 | 0.00 | 0.00 | 65 | 1020.8 |
| 20260502115803 | 47 | 94 | 2.0 | 3.0 | 0.00 | 0.00 | 0.00 | 65 | 1020.8 |
| 20260502115306 | 47 | 104 | 1.0 | 3.0 | 0.00 | 0.00 | 0.00 | 65 | 1020.7 |
| 20260502114804 | 47 | 100 | 2.0 | 3.0 | 0.00 | 0.00 | 0.00 | 65 | 1020.8 |
| 20260502114304 | 47 | 99 | 1.0 | 3.0 | 0.00 | 0.00 | 0.00 | 65 | 1020.8 |
| 20260502113304 | 47 | 100 | 1.0 | 2.0 | 0.00 | 0.00 | 0.00 | 65 | 1020.7 |
| 20260502112804 | 47 | 86 | 1.0 | 2.0 | 0.00 | 0.00 | 0.00 | 65 | 1020.8 |
| 20260502112306 | 48 | 103 | 2.0 | 5.0 | 0.00 | 0.00 | 0.00 | 65 | 1020.8 |
| 20260502111804 | 48 | 97 | 2.0 | 3.0 | 0.00 | 0.00 | 0.00 | 66 | 1020.7 |
| 20260502110804 | 48 | 94 | 1.0 | 5.0 | 0.00 | 0.00 | 0.00 | 66 | 1020.9 |
| 20260502105803 | 48 | 31 | 1.0 | 5.0 | 0.00 | 0.00 | 0.00 | 65 | 1020.7 |
| 20260502105306 | 48 | 96 | 1.0 | 3.0 | 0.00 | 0.00 | 0.00 | 65 | 1020.7 |
| 20260502104804 | 48 | 50 | 0.0 | 3.0 | 0.00 | 0.00 | 0.00 | 65 | 1020.8 |
| 20260502104304 | 48 | 23 | 1.0 | 2.0 | 0.00 | 0.00 | 0.00 | 65 | 1020.7 |
| 20260502103304 | 48 | 44 | 1.0 | 2.0 | 0.00 | 0.00 | 0.00 | 65 | 1020.7 |
| 20260502102803 | 48 | 22 | 1.0 | 2.0 | 0.00 | 0.00 | 0.00 | 65 | 1020.7 |
| 20260502101804 | 49 | 61 | 1.0 | 3.0 | 0.00 | 0.00 | 0.00 | 66 | 1020.5 |
| 20260502101304 | 49 | 104 | 1.0 | 3.0 | 0.00 | 0.00 | 0.00 | 66 | 1020.7 |
| 20260502100804 | 49 | 39 | 1.0 | 2.0 | 0.00 | 0.00 | 0.00 | 66 | 1020.8 |
| 20260502100304 | 49 | 113 | 1.0 | 3.0 | 0.00 | 0.00 | 0.00 | 66 | 1020.8 |
| 20260502091304 | 50 | 74 | 1.0 | 3.0 | 0.00 | 0.00 | 0.00 | 60 | 1020.6 |
| 20260502090304 | 50 | 9 | 2.0 | 5.0 | 0.00 | 0.00 | 0.00 | 61 | 1020.4 |
| 20260502071304 | 50 | 49 | 1.0 | 2.0 | 0.00 | 0.00 | 0.00 | 59 | 1020.3 |
| 20260502070804 | 50 | 51 | 0.0 | 1.0 | 0.00 | 0.00 | 0.00 | 59 | 1020.1 |
| 20260502065804 | 50 | 30 | 1.0 | 2.0 | 0.00 | 0.00 | 0.00 | 58 | 1020.1 |
| 20260502065306 | 50 | 41 | 0.0 | 2.0 | 0.00 | 0.00 | 0.00 | 58 | 1020.0 |
| 20260502064803 | 50 | 47 | 1.0 | 2.0 | 0.00 | 0.00 | 0.00 | 58 | 1020.3 |
| 20260502064305 | 50 | 48 | 1.0 | 1.0 | 0.00 | 0.00 | 0.00 | 58 | 1020.1 |
| 20260502063804 | 50 | 56 | 1.0 | 2.0 | 0.00 | 0.00 | 0.00 | 58 | 1020.0 |
| 20260502063304 | 50 | 52 | 1.0 | 2.0 | 0.00 | 0.00 | 0.00 | 58 | 1020.2 |
| 20260502062804 | 50 | 10 | 1.0 | 2.0 | 0.00 | 0.00 | 0.00 | 58 | 1020.0 |
| 20260502062306 | 50 | 57 | 1.0 | 3.0 | 0.00 | 0.00 | 0.00 | 58 | 1020.2 |
| 20260502061304 | 51 | 65 | 0.0 | 3.0 | 0.00 | 0.00 | 0.00 | 59 | 1020.2 |
| 20260502060804 | 51 | 50 | 1.0 | 2.0 | 0.00 | 0.00 | 0.00 | 59 | 1020.0 |
| 20260502060305 | 51 | 103 | 1.0 | 2.0 | 0.00 | 0.00 | 0.00 | 58 | 1019.9 |
| 20260502055804 | 50 | 55 | 1.0 | 2.0 | 0.00 | 0.00 | 0.00 | 59 | 1020.0 |
| 20260502054803 | 50 | 27 | 1.0 | 2.0 | 0.00 | 0.00 | 0.00 | 59 | 1020.2 |
| 20260502054305 | 50 | 42 | 1.0 | 3.0 | 0.00 | 0.00 | 0.00 | 60 | 1019.9 |
| 20260502053804 | 50 | 44 | 1.0 | 2.0 | 0.00 | 0.00 | 0.00 | 59 | 1019.7 |
| 20260502052804 | 50 | 102 | 1.0 | 5.0 | 0.00 | 0.00 | 0.00 | 60 | 1019.6 |
| 20260502052306 | 50 | 108 | 2.0 | 3.0 | 0.00 | 0.00 | 0.00 | 60 | 1019.6 |
| 20260502051804 | 50 | 37 | 1.0 | 2.0 | 0.00 | 0.00 | 0.00 | 58 | 1019.7 |
| 20260502051304 | 51 | 57 | 0.0 | 2.0 | 0.00 | 0.00 | 0.00 | 58 | 1019.8 |
| 20260502050804 | 51 | 77 | 1.0 | 3.0 | 0.00 | 0.00 | 0.00 | 58 | 1019.7 |
| 20260502045804 | 51 | 78 | 2.0 | 5.0 | 0.00 | 0.00 | 0.00 | 58 | 1019.4 |
| 20260502045306 | 51 | 106 | 1.0 | 6.0 | 0.00 | 0.00 | 0.00 | 57 | 1019.5 |
| 20260502044804 | 51 | 97 | 3.0 | 7.0 | 0.00 | 0.00 | 0.00 | 58 | 1019.5 |
| 20260502044304 | 52 | 107 | 2.0 | 5.0 | 0.00 | 0.00 | 0.00 | 57 | 1019.3 |
| 20260502043803 | 52 | 119 | 3.0 | 6.0 | 0.00 | 0.00 | 0.00 | 57 | 1019.4 |
| 20260502043304 | 52 | 105 | 2.0 | 5.0 | 0.00 | 0.00 | 0.00 | 56 | 1019.4 |
| 20260502042804 | 52 | 83 | 3.0 | 7.0 | 0.00 | 0.00 | 0.00 | 56 | 1019.3 |
| 20260502041804 | 53 | 129 | 3.0 | 8.0 | 0.00 | 0.00 | 0.00 | 55 | 1019.3 |
| 20260502041304 | 53 | 109 | 3.0 | 7.0 | 0.00 | 0.00 | 0.00 | 55 | 1019.2 |
| 20260502040804 | 53 | 85 | 3.0 | 9.0 | 0.00 | 0.00 | 0.00 | 55 | 1019.3 |
| 20260502040304 | 53 | 119 | 5.0 | 10.0 | 0.00 | 0.00 | 0.00 | 55 | 1019.0 |
| 20260502035804 | 53 | 114 | 5.0 | 12.0 | 0.00 | 0.00 | 0.00 | 54 | 1019.1 |
| 20260502035306 | 53 | 119 | 4.0 | 12.0 | 0.00 | 0.00 | 0.00 | 54 | 1019.1 |
| 20260502034804 | 54 | 106 | 5.0 | 10.0 | 0.00 | 0.00 | 0.00 | 54 | 1018.8 |
| 20260502034303 | 54 | 127 | 4.0 | 13.0 | 0.00 | 0.00 | 0.00 | 53 | 1018.8 |
| 20260502033304 | 54 | 157 | 5.0 | 13.0 | 0.00 | 0.00 | 0.00 | 52 | 1018.8 |
| 20260502032805 | 54 | 135 | 5.0 | 12.0 | 0.00 | 0.00 | 0.00 | 52 | 1018.6 |
| 20260502032306 | 54 | 137 | 3.0 | 14.0 | 0.00 | 0.00 | 0.00 | 52 | 1018.5 |
| 20260502031804 | 54 | 117 | 6.0 | 15.0 | 0.00 | 0.00 | 0.00 | 52 | 1018.3 |
| 20260502030805 | 55 | 126 | 6.0 | 16.0 | 0.00 | 0.00 | 0.00 | 51 | 1018.4 |
| 20260502030304 | 55 | 109 | 7.0 | 14.0 | 0.00 | 0.00 | 0.00 | 51 | 1018.2 |
| 20260502025804 | 55 | 139 | 5.0 | 14.0 | 0.00 | 0.00 | 0.00 | 51 | 1018.0 |
| 20260502025306 | 55 | 95 | 9.0 | 16.0 | 0.00 | 0.00 | 0.00 | 50 | 1017.9 |
| 20260502024804 | 56 | 119 | 6.0 | 16.0 | 0.00 | 0.00 | 0.00 | 50 | 1017.8 |
| 20260502024305 | 56 | 102 | 6.0 | 18.0 | 0.00 | 0.00 | 0.00 | 48 | 1017.7 |
| 20260502023804 | 56 | 104 | 9.0 | 18.0 | 0.00 | 0.00 | 0.00 | 48 | 1017.7 |
| 20260502022306 | 59 | 117 | 6.0 | 21.0 | 0.00 | 0.00 | 0.00 | 44 | 1017.5 |
| 20260502021804 | 61 | 122 | 7.0 | 16.0 | 0.00 | 0.00 | 0.00 | 41 | 1017.1 |
| 20260502020804 | 62 | 112 | 3.0 | 6.0 | 0.00 | 0.00 | 0.00 | 33 | 1016.8 |
| 20260502020304 | 62 | 125 | 2.0 | 5.0 | 0.00 | 0.00 | 0.00 | 33 | 1016.6 |
| 20260502015804 | 62 | 92 | 3.0 | 8.0 | 0.00 | 0.00 | 0.00 | 32 | 1016.6 |
| 20260502015305 | 62 | 104 | 2.0 | 6.0 | 0.00 | 0.00 | 0.00 | 32 | 1016.7 |
| 20260502014803 | 63 | 103 | 2.0 | 5.0 | 0.00 | 0.00 | 0.00 | 32 | 1016.5 |
| 20260502013804 | 63 | 106 | 3.0 | 7.0 | 0.00 | 0.00 | 0.00 | 31 | 1016.5 |